CW9451 Weather Reports


Display with metric or nautical units.
time (UTC)temp
F
wind
direction
speed
MPH
gust
MPH
rain 1hr
in
rain 24hr
in
rain mn
in
humidity
%
barometer
mb
20260503030904 58 0.0 0.0 0.00 0.00 0.00 77 1015.5
20260503025904 58 0.0 0.0 0.00 0.00 0.00 77 1015.3
20260503024907 59 0.0 0.0 0.00 0.00 0.00 76 1015.5
20260503023907 59 0.0 0.0 0.00 0.00 0.00 75 1015.5
20260503022904 59 0.0 0.0 0.00 0.00 0.00 74 1015.2
20260503021903 60 0.0 0.0 0.00 0.00 0.00 73 1015.7
20260503020903 60 0.0 0.0 0.00 0.00 0.00 73 1015.7
20260503015908 61 0.0 0.0 0.00 0.00 0.00 73 1015.7
20260503013905 61 0.0 0.0 0.00 0.00 0.00 72 1015.8
20260503012904 61 0.0 0.0 0.00 0.00 0.00 71 1016.0
20260503011903 62 0.0 0.0 0.00 0.00 0.00 71 1016.2
20260503010903 61 0.0 0.0 0.00 0.00 0.00 71 1016.2
20260503005904 62 0.0 0.0 0.00 0.00 0.00 71 1016.3
20260503004905 62 0.0 0.0 0.00 0.00 0.00 71 1016.4
20260503003905 62 0.0 0.0 0.00 0.00 0.00 71 1016.4
20260503002909 62 0.0 0.0 0.00 0.00 0.00 71 1016.5
20260503000905 62 0.0 0.0 0.00 0.00 0.00 73 1016.7
20260502235904 61 0.0 0.0 0.00 0.00 0.00 74 1016.8
20260502234909 61 0.0 0.0 0.00 0.00 0.00 71 1016.3
20260502231904 63 0.0 0.0 0.00 0.00 0.00 68 1016.2
20260502230904 64 0.0 0.0 0.00 0.00 0.00 68 1016.3
20260502225909 64 0.0 0.0 0.00 0.00 0.00 67 1016.2
20260502223909 64 0.0 0.0 0.00 0.00 0.00 67 1016.1
20260502215904 66 0.0 0.0 0.00 0.00 0.00 65 1016.5
20260502214904 66 0.0 0.0 0.00 0.00 0.00 65 1016.4
20260502213904 66 0.0 0.0 0.00 0.00 0.00 65 1016.6
20260502212909 67 0.0 0.0 0.00 0.00 0.00 65 1016.6
20260502210904 67 0.0 0.0 0.00 0.00 0.00 64 1016.5
20260502205909 68 0.0 0.0 0.00 0.00 0.00 65 1016.6
20260502203903 68 0.0 0.0 0.00 0.00 0.00 65 1016.6
20260502202904 68 0.0 0.0 0.00 0.00 0.00 65 1016.6
20260502201904 69 0.0 0.0 0.00 0.00 0.00 65 1016.6
20260502200904 69 0.0 0.0 0.00 0.00 0.00 64 1016.5
20260502195908 69 0.0 0.0 0.00 0.00 0.00 63 1016.4
20260502194914 69 0.0 0.0 0.00 0.00 0.00 61 1016.2
20260502193904 69 0.0 0.0 0.00 0.00 0.00 60 1016.2
20260502192905 69 0.0 0.0 0.00 0.00 0.00 60 1015.9
20260502191904 70 0.0 0.0 0.00 0.00 0.00 59 1015.7
20260502190905 70 0.0 0.0 0.00 0.00 0.00 58 1015.7
20260502185905 71 0.0 0.0 0.00 0.00 0.00 58 1015.7
20260502184905 72 0.0 0.0 0.00 0.00 0.00 58 1015.6
20260502183903 72 0.0 0.0 0.00 0.00 0.00 59 1015.6
20260502181904 76 0.0 0.0 0.00 0.00 0.00 57 1015.5
20260502180904 78 0.0 0.0 0.00 0.00 0.00 57 1015.6
20260502163905 84 0.0 0.0 0.00 0.00 0.00 48 1016.1
20260502162909 84 0.0 0.0 0.00 0.00 0.00 42 1015.8
20260502150905 86 0.0 0.0 0.00 0.00 0.00 40 1016.7
20260502121904 82 0.0 0.0 0.00 0.00 0.00 49 1019.7
20260502120905 82 0.0 0.0 0.00 0.00 0.00 49 1020.0
20260502115908 82 0.0 0.0 0.00 0.00 0.00 50 1020.3
20260502113905 81 0.0 0.0 0.00 0.00 0.00 50 1020.9
20260502112904 81 0.0 0.0 0.00 0.00 0.00 49 1020.9
20260502111905 80 0.0 0.0 0.00 0.00 0.00 47 1020.8
20260502110905 80 0.0 0.0 0.00 0.00 0.00 51 1021.3
20260502105905 79 0.0 0.0 0.00 0.00 0.00 49 1021.4
20260502104904 79 0.0 0.0 0.00 0.00 0.00 49 1021.5
20260502103905 78 0.0 0.0 0.00 0.00 0.00 51 1021.6
20260502102905 78 0.0 0.0 0.00 0.00 0.00 51 1022.0
20260502101904 77 0.0 0.0 0.00 0.00 0.00 52 1022.1
20260502100904 76 0.0 0.0 0.00 0.00 0.00 53 1022.3
20260502090909 73 0.0 0.0 0.00 0.00 0.00 58 1023.2
20260502070909 63 0.0 0.0 0.00 0.00 0.00 70 1024.7
20260502064904 62 0.0 0.0 0.00 0.00 0.00 72 1024.8
20260502063905 61 0.0 0.0 0.00 0.00 0.00 72 1024.8
20260502062904 61 0.0 0.0 0.00 0.00 0.00 73 1024.9
20260502061905 60 0.0 0.0 0.00 0.00 0.00 75 1024.9
20260502060904 59 0.0 0.0 0.00 0.00 0.00 76 1024.8
20260502055904 58 0.0 0.0 0.00 0.00 0.00 76 1025.0
20260502054909 58 0.0 0.0 0.00 0.00 0.00 76 1025.1
20260502052904 57 0.0 0.0 0.00 0.00 0.00 77 1024.9
20260502051904 56 0.0 0.0 0.00 0.00 0.00 77 1024.9
20260502050905 56 0.0 0.0 0.00 0.00 0.00 77 1024.9
20260502045905 56 0.0 0.0 0.00 0.00 0.00 77 1024.8
20260502044905 55 0.0 0.0 0.00 0.00 0.00 77 1024.6
20260502043905 55 0.0 0.0 0.00 0.00 0.00 76 1024.4
20260502042904 55 0.0 0.0 0.00 0.00 0.00 76 1024.5
20260502041905 55 0.0 0.0 0.00 0.00 0.00 75 1024.3
20260502040905 55 0.0 0.0 0.00 0.00 0.00 75 1024.3
20260502035904 55 0.0 0.0 0.00 0.00 0.00 74 1024.2
20260502034905 56 0.0 0.0 0.00 0.00 0.00 74 1024.3
20260502033905 56 0.0 0.0 0.00 0.00 0.00 73 1024.4
20260502032904 56 0.0 0.0 0.00 0.00 0.00 73 1024.5